Flag for Germany Weather past 2 weeks in Nordkirchen, North Rhine-Westphalia, Germany

Now
61 °F

Drizzle. Broken clouds.


Feels Like: 61 °F
Forecast: 53 / 65 °F
Wind: 6 mph from Northwest

Location: Dortmund / Wickede

Current Time: Sep 1, 2015 at 10:13:59 AM

Latest Report: Sep 1, 2015 at 9:20 AM


Visibility: N/A

Pressure: 29.80 "Hg

Humidity: 88%

Dew point: 57 °F

Location of NordkirchenLocation

Historic Weather in Nordkirchen — Graph

°F

Nordkirchen temperature yesterday

Maximum temperature yesterday: 88 °F (at 3:50 PM)
Minimum temperature yesterday: 68 °F (at 5:50 AM)
Average temperature yesterday: 79 °F

Past Weeks' High & Low Weather Summary

 TemperatureHumidityPressure
High88 °F (Aug 30, 2:20 PM)94% (Aug 17, 8:50 AM)30.24 "Hg (Aug 17, 8:50 AM)
Low50 °F (Aug 19, 5:20 AM)26% (Aug 22, 4:50 PM)29.56 "Hg (Aug 24, 2:50 PM)
Average67 °F63%29.97 "Hg
* Reported Aug 17 8:20 AM — Sep 1 8:50 AM, Nordkirchen, Weather by CustomWeather, © 2015

Note: Actual official high and low records may vary slightly from our data, if they occured in-between our weather recording intervals... More about our weather records

Advertising

Nordkirchen weather history for previous 24 hours

 ConditionsComfort  
Time TempWeatherWind HumidityBarometerVisibility
8:50 AM
Tue, Sep 1
63 °FLight rain. Partly sunny.7 mph83%29.80 "Hg4 mi
8:20 AM63 °FPartly sunny.9 mph77%29.83 "HgN/A
7:50 AM64 °FPartly sunny.8 mph73%29.83 "HgN/A
7:20 AM63 °FPassing clouds.8 mph77%29.83 "HgN/A
6:50 AM63 °FPassing clouds.7 mph77%29.83 "HgN/A
5:20 AM64 °FPassing clouds.10 mph73%29.80 "HgN/A
10:50 PM
Mon, Aug 31
72 °FMild.9 mph69%29.80 "HgN/A
10:20 PM72 °FClear.9 mph65%29.80 "Hg10 mi
9:50 PM73 °FPassing clouds.8 mph65%29.80 "HgN/A
9:20 PM75 °FPassing clouds.7 mph61%29.80 "HgN/A
8:50 PM77 °FPassing clouds.8 mph54%29.77 "HgN/A
8:20 PM77 °FSunny.10 mph44%29.77 "Hg10 mi
7:50 PM81 °FSunny.9 mph37%29.74 "Hg10 mi
7:20 PM82 °FSunny.10 mph32%29.74 "Hg10 mi
6:50 PM84 °FSunny.14 mph29%29.77 "Hg10 mi
6:20 PM86 °FSunny.15 mph27%29.77 "Hg10 mi
5:50 PM86 °FSunny.17 mph27%29.77 "Hg10 mi
5:20 PM88 °FSunny.15 mph27%29.77 "Hg10 mi
4:50 PM88 °FSunny.15 mph29%29.77 "Hg10 mi
4:20 PM88 °FPassing clouds.13 mph35%29.77 "HgN/A
3:50 PM88 °FSunny.15 mph33%29.77 "Hg10 mi
3:20 PM86 °FPassing clouds.14 mph31%29.77 "HgN/A
2:50 PM86 °FPassing clouds.14 mph38%29.80 "HgN/A
2:20 PM86 °FPassing clouds.16 mph38%29.80 "HgN/A
1:50 PM86 °FSunny.13 mph38%29.80 "Hg10 mi
1:20 PM86 °FPassing clouds.10 mph35%29.83 "HgN/A
12:50 PM84 °FPassing clouds.9 mph40%29.83 "HgN/A
12:20 PM84 °FPassing clouds.7 mph40%29.83 "HgN/A
11:50 AM82 °FPassing clouds.8 mph40%29.83 "HgN/A
11:20 AM82 °FPassing clouds.7 mph42%29.86 "HgN/A
10:50 AM81 °FSunny.3 mph45%29.86 "Hg10 mi
10:20 AM79 °FSunny.2 mph65%29.86 "Hg10 mi
Weather by CustomWeather, © 2015

See weather overviewHow to use our weather pages